Date,TemperatureHighF,TemperatureAvgF,TemperatureLowF,DewpointHighF,DewpointAvgF,DewpointLowF,HumidityHigh,HumidityAvg,HumidityLow,PressureMaxIn,PressureMinIn,WindSpeedMaxMPH,WindSpeedAvgMPH,GustSpeedMaxMPH,PrecipitationSumIn
2013-1-1,16.9,6.6,-8.6,-99.9,-99.9,-99.9,99,92,84,0.00,40.00,0,-999,0,0.00
2013-1-2,19.3,13.5,4.8,-99.9,-99.9,-99.9,100,90,76,0.00,40.00,0,-999,0,0.00
2013-1-3,24.9,15.5,4.4,-99.9,-99.9,-99.9,94,87,80,0.00,40.00,0,-999,0,0.00
2013-1-4,29.6,20.6,11.0,-99.9,-99.9,-99.9,91,80,69,0.00,40.00,0,-999,0,0.00
2013-1-5,16.8,12.1,8.5,-99.9,-99.9,-99.9,93,82,66,0.00,40.00,0,-999,0,0.00
2013-1-6,19.2,14.7,9.8,-99.9,-99.9,-99.9,99,94,88,0.00,40.00,0,-999,0,0.00
2013-1-7,32.3,27.2,17.1,-99.9,-99.9,-99.9,98,88,74,0.00,40.00,0,-999,0,0.00
2013-1-8,32.6,25.0,13.7,-99.9,-99.9,-99.9,100,93,84,0.00,40.00,0,-999,0,0.00
2013-1-9,27.8,24.4,20.1,-99.9,-99.9,-99.9,96,86,74,0.00,40.00,0,-999,0,0.00
2013-1-10,37.5,31.1,24.6,-99.9,-99.9,-99.9,97,89,82,0.00,40.00,0,-999,0,0.00
2013-1-11,28.1,15.9,7.9,-99.9,-99.9,-99.9,100,94,89,0.00,40.00,0,-999,0,0.00
2013-1-12,7.9,0.3,-7.7,-99.9,-99.9,-99.9,97,90,83,0.00,40.00,0,-999,0,0.00
2013-1-13,6.5,-2.3,-12.2,-99.9,-99.9,-99.9,94,89,82,0.00,40.00,0,-999,0,0.00
2013-1-14,7.5,0.0,-8.1,-99.9,-99.9,-99.9,93,88,79,0.00,40.00,0,-999,0,0.00
2013-1-15,24.5,7.2,-8.2,-99.9,-99.9,-99.9,100,92,79,0.00,40.00,0,-999,0,0.00
2013-1-16,21.4,1.5,-7.8,-99.9,-99.9,-99.9,99,76,60,0.00,40.00,0,-999,0,0.00
2013-1-17,6.0,-1.7,-6.2,-99.9,-99.9,-99.9,92,80,63,0.00,40.00,0,-999,0,0.00
2013-1-18,10.2,6.1,-1.3,-99.9,-99.9,-99.9,96,91,84,0.00,40.00,0,-999,0,0.00
2013-1-19,11.0,2.6,-9.1,-99.9,-99.9,-99.9,98,88,79,0.00,40.00,0,-999,0,0.00
2013-1-20,3.1,-8.3,-18.5,-99.9,-99.9,-99.9,89,81,69,0.00,40.00,0,-999,0,0.00
2013-1-21,-3.8,-13.3,-18.4,-99.9,-99.9,-99.9,84,77,62,0.00,40.00,0,-999,0,0.00
2013-1-22,-3.9,-12.0,-21.7,-99.9,-99.9,-99.9,88,80,67,0.00,40.00,0,-999,0,0.00
2013-1-23,-1.5,-8.5,-17.7,-99.9,-99.9,-99.9,88,74,55,0.00,40.00,0,-999,0,0.00
2013-1-24,1.3,-10.4,-22.5,-99.9,-99.9,-99.9,95,86,76,0.00,40.00,0,-999,0,0.00
2013-1-25,2.2,-3.9,-12.9,-99.9,-99.9,-99.9,95,84,70,0.00,40.00,0,-999,0,0.00
2013-1-26,9.3,0.8,-13.9,-99.9,-99.9,-99.9,96,86,74,0.00,40.00,0,-999,0,0.00
2013-1-27,21.1,11.2,2.6,-99.9,-99.9,-99.9,99,89,75,0.00,40.00,0,-999,0,0.00
2013-1-28,21.0,14.6,6.1,-99.9,-99.9,-99.9,100,94,86,0.00,40.00,0,-999,0,0.00
2013-1-29,20.9,16.4,4.8,-99.9,-99.9,-99.9,100,91,80,0.00,40.00,0,-999,0,0.00
2013-1-30,9.7,4.6,-3.7,-99.9,-99.9,-99.9,91,86,76,0.00,40.00,0,-999,0,0.00
2013-1-31,-3.8,-9.6,-19.6,-99.9,-99.9,-99.9,87,78,66,0.00,40.00,0,-999,0,0.00
2013-2-1,-5.7,-14.4,-24.1,-99.9,-99.9,-99.9,87,79,65,0.00,40.00,0,-999,0,0.00
2013-2-2,4.7,-6.9,-20.6,-99.9,-99.9,-99.9,91,87,81,0.00,40.00,0,-999,0,0.00
2013-2-3,8.3,1.3,-4.2,-99.9,-99.9,-99.9,91,83,70,0.00,40.00,0,-999,0,0.00
2013-2-4,12.9,4.0,-8.8,-99.9,-99.9,-99.9,97,91,76,0.00,40.00,0,-999,0,0.00
2013-2-5,8.5,1.5,-4.3,-99.9,-99.9,-99.9,94,84,72,0.00,40.00,0,-999,0,0.00
2013-2-6,15.2,8.9,1.6,-99.9,-99.9,-99.9,91,85,77,0.00,40.00,0,-999,0,0.00
2013-2-7,14.1,7.2,0.1,-99.9,-99.9,-99.9,91,82,64,0.00,40.00,0,-999,0,0.00
2013-2-8,22.0,13.2,0.2,-99.9,-99.9,-99.9,100,93,88,0.00,40.00,0,-999,0,0.00
2013-2-9,27.0,24.0,20.6,-99.9,-99.9,-99.9,100,98,93,0.00,40.00,0,-999,0,0.00
2013-2-10,29.6,25.6,23.6,-99.9,-99.9,-99.9,100,97,88,0.00,40.00,0,-999,0,0.00
2013-2-11,24.4,18.9,14.6,-99.9,-99.9,-99.9,94,87,68,0.00,40.00,0,-999,0,0.00
2013-2-12,32.2,21.9,11.0,-99.9,-99.9,-99.9,95,86,66,0.00,40.00,0,-999,0,0.00
2013-2-13,33.8,21.1,11.8,-99.9,-99.9,-99.9,97,87,74,0.00,40.00,0,-999,0,0.00
2013-2-14,18.6,11.1,5.2,-99.9,-99.9,-99.9,90,82,66,0.00,40.00,0,-999,0,0.00
2013-2-15,18.0,6.1,-6.2,-99.9,-99.9,-99.9,94,86,76,0.00,40.00,0,-999,0,0.00
2013-2-16,18.6,8.8,-3.5,-99.9,-99.9,-99.9,97,90,75,0.00,40.00,0,-999,0,0.00
2013-2-17,28.2,23.5,16.5,-99.9,-99.9,-99.9,100,98,94,0.00,40.00,0,-999,0,0.00
2013-2-18,24.4,6.6,-5.3,-99.9,-99.9,-99.9,100,89,79,0.00,40.00,0,-999,0,0.00
2013-2-19,2.9,-4.1,-11.9,-99.9,-99.9,-99.9,83,73,63,0.00,40.00,0,-999,0,0.00
2013-2-20,7.9,-1.5,-11.8,-99.9,-99.9,-99.9,83,69,55,0.00,40.00,0,-999,0,0.00
2013-2-21,17.8,11.1,5.6,-99.9,-99.9,-99.9,75,67,54,0.00,40.00,0,-999,0,0.00
2013-2-22,22.9,13.7,6.5,-99.9,-99.9,-99.9,90,77,65,0.00,40.00,0,-999,0,0.00
2013-2-23,24.4,18.3,12.1,-99.9,-99.9,-99.9,100,96,85,0.00,40.00,0,-999,0,0.00
2013-2-24,24.8,18.5,12.0,-99.9,-99.9,-99.9,100,92,73,0.00,40.00,0,-999,0,0.00
2013-2-25,31.7,20.5,8.5,-99.9,-99.9,-99.9,100,88,72,0.00,40.00,0,-999,0,0.00
2013-2-26,29.4,21.7,14.9,-99.9,-99.9,-99.9,95,85,62,0.00,40.00,0,-999,0,0.00
2013-2-27,34.4,25.1,11.2,-99.9,-99.9,-99.9,100,83,69,0.00,40.00,0,-999,0,0.00
2013-2-28,29.1,21.8,14.4,-99.9,-99.9,-99.9,87,75,60,0.00,40.00,0,-999,0,0.00
2013-3-1,25.7,17.4,9.4,-99.9,-99.9,-99.9,89,74,59,0.00,40.00,0,-999,0,0.00
2013-3-2,25.7,17.4,6.3,-99.9,-99.9,-99.9,87,80,70,0.00,40.00,0,-999,0,0.00
2013-3-3,30.9,26.9,22.4,-99.9,-99.9,-99.9,90,75,62,0.00,40.00,0,-999,0,0.00
2013-3-4,30.2,25.0,22.3,-99.9,-99.9,-99.9,100,89,60,0.00,40.00,0,-999,0,0.00
2013-3-5,27.2,22.5,20.2,-99.9,-99.9,-99.9,100,93,79,0.00,40.00,0,-999,0,0.00
2013-3-6,26.8,20.1,10.5,-99.9,-99.9,-99.9,100,88,70,0.00,40.00,0,-999,0,0.00
2013-3-7,29.4,20.9,9.4,-99.9,-99.9,-99.9,99,82,66,0.00,40.00,0,-999,0,0.00
2013-3-8,31.7,25.2,20.6,-99.9,-99.9,-99.9,98,87,69,0.00,40.00,0,-999,0,0.00
2013-3-9,34.1,25.9,20.0,-99.9,-99.9,-99.9,92,81,61,0.00,40.00,0,-999,0,0.00
2013-3-10,28.4,22.4,15.5,-99.9,-99.9,-99.9,91,75,54,0.00,40.00,0,-999,0,0.00
2013-3-11,27.3,18.7,9.2,-99.9,-99.9,-99.9,92,78,57,0.00,40.00,0,-999,0,0.00
2013-3-12,30.0,21.5,13.1,-99.9,-99.9,-99.9,91,79,69,0.00,40.00,0,-999,0,0.00
2013-3-13,21.2,13.3,-1.0,-99.9,-99.9,-99.9,88,75,54,0.00,40.00,0,-999,0,0.00
2013-3-14,34.8,25.4,16.4,-99.9,-99.9,-99.9,96,80,63,0.00,40.00,0,-999,0,0.00
2013-3-15,16.2,9.0,5.1,-99.9,-99.9,-99.9,87,75,64,0.00,40.00,0,-999,0,0.00
2013-3-16,18.4,7.5,-1.2,-99.9,-99.9,-99.9,90,74,58,0.00,40.00,0,-999,0,0.00
2013-3-17,15.2,4.3,-8.6,-99.9,-99.9,-99.9,98,80,56,0.00,40.00,0,-999,0,0.00
2013-3-18,20.6,15.9,7.4,-99.9,-99.9,-99.9,100,92,81,0.00,40.00,0,-999,0,0.00
2013-3-19,21.0,10.4,-1.5,-99.9,-99.9,-99.9,84,69,54,0.00,40.00,0,-999,0,0.00
2013-3-20,23.0,12.1,0.3,-99.9,-99.9,-99.9,82,68,47,0.00,40.00,0,-999,0,0.00
2013-3-21,26.8,15.4,3.1,-99.9,-99.9,-99.9,89,73,53,0.00,40.00,0,-999,0,0.00
2013-3-22,31.4,19.4,4.9,-99.9,-99.9,-99.9,89,76,61,0.00,40.00,0,-999,0,0.00
2013-3-23,35.5,23.2,9.3,-99.9,-99.9,-99.9,95,79,61,0.00,40.00,0,-999,0,0.00
2013-3-24,35.3,27.6,21.4,-99.9,-99.9,-99.9,86,77,58,0.00,40.00,0,-999,0,0.00
2013-3-25,36.3,27.3,21.0,-99.9,-99.9,-99.9,88,78,56,0.00,40.00,0,-999,0,0.00
2013-3-26,33.0,22.0,10.1,-99.9,-99.9,-99.9,92,80,56,0.00,40.00,0,-999,0,0.00
2013-3-27,32.5,21.8,6.5,-99.9,-99.9,-99.9,94,78,61,0.00,40.00,0,-999,0,0.00
2013-3-28,38.6,27.4,16.0,-99.9,-99.9,-99.9,98,82,58,0.00,40.00,0,-999,0,0.00
2013-3-29,32.7,25.2,19.2,-99.9,-99.9,-99.9,100,97,82,0.00,40.00,0,-999,0,0.00
2013-3-30,45.0,33.8,21.1,-99.9,-99.9,-99.9,100,81,58,0.00,40.00,0,-999,0,0.00
2013-3-31,32.3,25.3,18.5,-99.9,-99.9,-99.9,98,74,57,0.00,40.00,0,-999,0,0.00
2013-4-1,35.0,23.1,7.0,-99.9,-99.9,-99.9,84,67,45,0.00,40.00,0,-999,0,0.00
2013-4-2,31.8,23.9,16.8,-99.9,-99.9,-99.9,83,64,40,0.00,40.00,0,-999,0,0.00
2013-4-3,37.1,27.5,17.5,-99.9,-99.9,-99.9,96,80,66,0.00,40.00,0,-999,0,0.00
2013-4-4,35.3,29.7,21.9,-99.9,-99.9,-99.9,90,66,47,0.00,40.00,0,-999,0,0.00
2013-4-5,32.6,24.0,13.7,-99.9,-99.9,-99.9,100,78,46,0.00,40.00,0,-999,0,0.00
2013-4-6,38.2,33.3,29.2,-99.9,-99.9,-99.9,100,90,76,0.00,40.00,0,-999,0,0.00
2013-4-7,35.8,30.1,23.2,-99.9,-99.9,-99.9,95,78,52,0.00,40.00,0,-999,0,0.00
2013-4-8,31.3,23.3,16.4,-99.9,-99.9,-99.9,85,65,53,0.00,40.00,0,-999,0,0.00
2013-4-9,33.9,23.8,10.6,-99.9,-99.9,-99.9,77,65,36,0.00,40.00,0,-999,0,0.00
2013-4-10,40.7,30.4,17.1,-99.9,-99.9,-99.9,89,59,36,0.00,40.00,0,-999,0,0.00
2013-4-11,40.0,33.1,24.0,-99.9,-99.9,-99.9,63,51,35,0.00,40.00,0,-999,0,0.00
2013-4-12,39.8,35.6,29.8,-99.9,-99.9,-99.9,90,64,44,0.00,40.00,0,-999,0,0.00
2013-4-13,41.7,34.0,25.1,-99.9,-99.9,-99.9,87,64,47,0.00,40.00,0,-999,0,0.00
2013-4-14,46.7,37.2,25.8,-99.9,-99.9,-99.9,74,55,36,0.00,40.00,0,-999,0,0.00
2013-4-15,38.1,33.8,31.8,-99.9,-99.9,-99.9,100,92,62,0.00,40.00,0,-999,0,0.00
2013-4-16,40.7,34.2,29.3,-99.9,-99.9,-99.9,96,68,46,0.00,40.00,0,-999,0,0.00
2013-4-17,41.6,34.9,30.1,-99.9,-99.9,-99.9,85,72,58,0.00,40.00,0,-999,0,0.00
2013-4-18,49.1,39.3,31.5,-99.9,-99.9,-99.9,94,58,34,0.00,40.00,0,-999,0,0.00
2013-4-19,41.6,33.9,26.6,-99.9,-99.9,-99.9,70,52,31,0.00,40.00,0,-999,0,0.00
2013-4-20,39.3,30.6,21.0,-99.9,-99.9,-99.9,72,56,33,0.00,40.00,0,-999,0,0.00
2013-4-21,40.5,34.3,31.0,-99.9,-99.9,-99.9,100,86,64,0.00,40.00,0,-999,0,0.00
2013-4-22,42.6,34.5,26.3,-99.9,-99.9,-99.9,87,63,42,0.00,40.00,0,-999,0,0.00
2013-4-23,42.9,33.5,22.5,-99.9,-99.9,-99.9,89,70,50,0.00,40.00,0,-999,0,0.00
2013-4-24,43.9,34.7,26.5,-99.9,-99.9,-99.9,92,79,59,0.00,40.00,0,-999,0,0.00
2013-4-25,43.2,36.2,25.7,-99.9,-99.9,-99.9,99,78,55,0.00,40.00,0,-999,0,0.00
2013-4-26,60.0,47.9,35.4,-99.9,-99.9,-99.9,95,72,46,0.00,40.00,0,-999,0,0.00
2013-4-27,60.1,51.2,43.7,-99.9,-99.9,-99.9,83,69,51,0.00,40.00,0,-999,0,0.00
2013-4-28,67.7,53.5,43.2,-99.9,-99.9,-99.9,86,57,25,0.00,40.00,0,-999,0,0.00
2013-4-29,54.5,44.7,33.1,-99.9,-99.9,-99.9,96,76,34,0.00,40.00,0,-999,0,0.00
2013-4-30,46.7,40.6,30.9,-99.9,-99.9,-99.9,100,97,90,0.00,40.00,0,-999,0,0.00
2013-5-1,35.5,31.6,28.1,-99.9,-99.9,-99.9,95,83,69,0.00,40.00,0,-999,0,0.00
2013-5-2,38.3,32.4,27.5,-99.9,-99.9,-99.9,91,76,60,0.00,40.00,0,-999,0,0.00
2013-5-3,50.9,40.4,27.3,-99.9,-99.9,-99.9,94,64,39,0.00,40.00,0,-999,0,0.00
2013-5-4,58.9,48.3,32.9,-99.9,-99.9,-99.9,84,49,28,0.00,40.00,0,-999,0,0.00
2013-5-5,65.4,53.8,37.3,-99.9,-99.9,-99.9,90,53,33,0.00,40.00,0,-999,0,0.00
2013-5-6,78.0,63.4,43.2,-99.9,-99.9,-99.9,81,47,23,0.00,40.00,0,-999,0,0.00
2013-5-7,77.0,66.3,50.5,-99.9,-99.9,-99.9,73,48,27,0.00,40.00,0,-999,0,0.00
2013-5-8,62.6,52.2,41.6,-99.9,-99.9,-99.9,64,48,32,0.00,40.00,0,-999,0,0.00
2013-5-9,59.7,49.0,35.7,-99.9,-99.9,-99.9,66,41,24,0.00,40.00,0,-999,0,0.00
2013-5-10,54.3,46.9,39.1,-99.9,-99.9,-99.9,87,58,39,0.00,40.00,0,-999,0,0.00
2013-5-11,52.6,43.1,34.0,-99.9,-99.9,-99.9,83,53,30,0.00,40.00,0,-999,0,0.00
2013-5-12,60.5,47.2,29.9,-99.9,-99.9,-99.9,70,39,22,0.00,40.00,0,-999,0,0.00
2013-5-13,80.5,62.9,47.9,-99.9,-99.9,-99.9,49,35,25,0.00,40.00,0,-999,0,0.00
2013-5-14,79.2,67.2,55.8,-99.9,-99.9,-99.9,77,49,28,0.00,40.00,0,-999,0,0.00
2013-5-15,74.1,61.6,47.4,-99.9,-99.9,-99.9,78,50,28,0.00,40.00,0,-999,0,0.00
2013-5-16,70.7,61.9,49.7,-99.9,-99.9,-99.9,62,37,25,0.00,40.00,0,-999,0,0.00
2013-5-17,66.3,58.4,52.6,-99.9,-99.9,-99.9,89,65,45,0.00,40.00,0,-999,0,0.00
2013-5-18,63.0,56.9,53.8,-99.9,-99.9,-99.9,100,79,58,0.00,40.00,0,-999,0,0.00
2013-5-19,59.9,56.3,52.7,-99.9,-99.9,-99.9,100,95,84,0.00,40.00,0,-999,0,0.00
2013-5-20,57.5,54.1,48.4,-99.9,-99.9,-99.9,97,89,77,0.00,40.00,0,-999,0,0.00
2013-5-21,70.0,59.0,47.5,-99.9,-99.9,-99.9,91,46,17,0.00,40.00,0,-999,0,0.00
2013-5-22,75.4,63.0,47.9,-99.9,-99.9,-99.9,68,43,29,0.00,40.00,0,-999,0,0.00
2013-5-23,65.3,56.5,43.9,-99.9,-99.9,-99.9,60,39,20,0.00,40.00,0,-999,0,0.00
2013-5-24,70.2,59.0,44.6,-99.9,-99.9,-99.9,69,44,25,0.00,40.00,0,-999,0,0.00
2013-5-25,65.1,58.6,52.5,-99.9,-99.9,-99.9,91,72,59,0.00,40.00,0,-999,0,0.00
2013-5-26,71.5,63.2,55.7,-99.9,-99.9,-99.9,78,59,38,0.00,40.00,0,-999,0,0.00
2013-5-27,74.0,65.0,57.1,-99.9,-99.9,-99.9,68,58,41,0.00,40.00,0,-999,0,0.00
2013-5-28,67.0,62.0,57.8,-99.9,-99.9,-99.9,100,84,68,0.00,40.00,0,-999,0,0.00
2013-5-29,72.2,63.5,52.7,-99.9,-99.9,-99.9,97,79,64,0.00,40.00,0,-999,0,0.00
2013-5-30,62.4,58.8,56.2,-99.9,-99.9,-99.9,100,96,85,0.00,40.00,0,-999,0,0.00
2013-5-31,56.0,53.0,49.3,-99.9,-99.9,-99.9,100,97,82,0.00,40.00,0,-999,0,0.00
2013-6-1,61.4,53.9,48.3,-99.9,-99.9,-99.9,88,70,50,0.00,40.00,0,-999,0,0.00
2013-6-2,64.1,54.6,40.9,-99.9,-99.9,-99.9,89,52,26,0.00,40.00,0,-999,0,0.00
2013-6-3,66.8,57.6,43.1,-99.9,-99.9,-99.9,76,42,23,0.00,40.00,0,-999,0,0.00
2013-6-4,69.8,62.0,52.2,-99.9,-99.9,-99.9,59,40,28,0.00,40.00,0,-999,0,0.00
2013-6-5,76.8,65.9,51.3,-99.9,-99.9,-99.9,68,41,26,0.00,40.00,0,-999,0,0.00
2013-6-6,77.3,66.7,52.5,-99.9,-99.9,-99.9,83,48,27,0.00,40.00,0,-999,0,0.00
2013-6-7,74.5,63.4,57.1,-99.9,-99.9,-99.9,93,65,35,0.00,40.00,0,-999,0,0.00
2013-6-8,75.2,64.7,51.7,-99.9,-99.9,-99.9,94,61,36,0.00,40.00,0,-999,0,0.00
2013-6-9,69.2,62.3,56.8,-99.9,-99.9,-99.9,92,77,59,0.00,40.00,0,-999,0,0.00
2013-6-10,73.5,64.0,56.1,-99.9,-99.9,-99.9,98,77,48,0.00,40.00,0,-999,0,0.00
2013-6-11,80.6,68.4,52.4,-99.9,-99.9,-99.9,90,57,34,0.00,40.00,0,-999,0,0.00
2013-6-12,78.3,68.6,58.9,-99.9,-99.9,-99.9,76,58,35,0.00,40.00,0,-999,0,0.00
2013-6-13,77.9,68.7,56.8,-99.9,-99.9,-99.9,93,54,28,0.00,40.00,0,-999,0,0.00
2013-6-14,76.4,67.5,59.8,-99.9,-99.9,-99.9,92,67,44,0.00,40.00,0,-999,0,0.00
2013-6-15,81.3,68.9,56.3,-99.9,-99.9,-99.9,90,61,31,0.00,40.00,0,-999,0,0.00
2013-6-16,77.0,66.4,55.8,-99.9,-99.9,-99.9,94,69,47,0.00,40.00,0,-999,0,0.00
2013-6-17,75.9,68.5,58.5,-99.9,-99.9,-99.9,86,57,32,0.00,40.00,0,-999,0,0.00
2013-6-18,78.3,68.8,55.1,-99.9,-99.9,-99.9,83,59,40,0.00,40.00,0,-999,0,0.00
2013-6-19,87.1,74.2,58.8,-99.9,-99.9,-99.9,79,52,29,0.00,40.00,0,-999,0,0.00
2013-6-20,79.9,71.5,62.0,-99.9,-99.9,-99.9,97,72,55,0.00,40.00,0,-999,0,0.00
2013-6-21,75.4,70.0,64.6,-99.9,-99.9,-99.9,92,81,70,0.00,40.00,0,-999,0,0.00
2013-6-22,81.3,72.4,64.8,-99.9,-99.9,-99.9,97,77,59,0.00,40.00,0,-999,0,0.00
2013-6-23,76.0,65.5,59.2,-99.9,-99.9,-99.9,100,94,73,0.00,40.00,0,-999,0,0.00
2013-6-24,85.4,72.9,58.4,-99.9,-99.9,-99.9,95,65,41,0.00,40.00,0,-999,0,0.00
2013-6-25,87.8,77.7,65.5,-99.9,-99.9,-99.9,93,65,47,0.00,40.00,0,-999,0,0.00
2013-6-26,83.4,74.0,64.3,-99.9,-99.9,-99.9,100,78,52,0.00,40.00,0,-999,0,0.00
2013-6-27,82.2,72.1,64.2,-99.9,-99.9,-99.9,96,74,49,0.00,40.00,0,-999,0,0.00
2013-6-28,79.5,70.0,65.1,-99.9,-99.9,-99.9,92,78,56,0.00,40.00,0,-999,0,0.00
2013-6-29,85.1,74.5,62.4,-99.9,-99.9,-99.9,88,57,26,0.00,40.00,0,-999,0,0.00
2013-6-30,86.8,75.9,62.4,-99.9,-99.9,-99.9,76,50,28,0.00,40.00,0,-999,0,0.00
2013-7-1,89.0,77.9,63.8,-99.9,-99.9,-99.9,83,52,26,0.00,40.00,0,-999,0,0.00
2013-7-2,92.0,80.7,68.0,-99.9,-99.9,-99.9,71,52,36,0.00,40.00,0,-999,0,0.00
2013-7-3,91.4,80.8,68.4,-99.9,-99.9,-99.9,81,54,29,0.00,40.00,0,-999,0,0.00
2013-7-4,88.9,79.3,69.7,-99.9,-99.9,-99.9,69,57,40,0.00,40.00,0,-999,0,0.00
2013-7-5,90.6,81.5,70.9,-99.9,-99.9,-99.9,77,50,29,0.00,40.00,0,-999,0,0.00
2013-7-6,82.6,76.6,71.7,-99.9,-99.9,-99.9,82,59,40,0.00,40.00,0,-999,0,0.00
2013-7-7,82.2,75.6,68.7,-99.9,-99.9,-99.9,96,68,49,0.00,40.00,0,-999,0,0.00
2013-7-8,85.4,74.6,63.7,-99.9,-99.9,-99.9,86,66,40,0.00,40.00,0,-999,0,0.00
2013-7-9,76.8,69.4,62.7,-99.9,-99.9,-99.9,99,64,44,0.00,40.00,0,-999,0,0.00
2013-7-10,78.9,69.5,57.5,-99.9,-99.9,-99.9,99,74,51,0.00,40.00,0,-999,0,0.00
2013-7-11,85.3,75.5,63.2,-99.9,-99.9,-99.9,85,64,41,0.00,40.00,0,-999,0,0.00
2013-7-12,79.0,75.5,71.4,-99.9,-99.9,-99.9,96,82,67,0.00,40.00,0,-999,0,0.00
2013-7-13,86.9,77.9,67.3,-99.9,-99.9,-99.9,97,58,27,0.00,40.00,0,-999,0,0.00
2013-7-14,79.6,72.6,64.0,-99.9,-99.9,-99.9,93,64,44,0.00,40.00,0,-999,0,0.00
2013-7-15,84.9,74.3,64.0,-99.9,-99.9,-99.9,84,61,40,0.00,40.00,0,-999,0,0.00
2013-7-16,84.3,76.2,68.2,-99.9,-99.9,-99.9,95,67,43,0.00,40.00,0,-999,0,0.00
2013-7-17,85.6,74.5,61.7,-99.9,-99.9,-99.9,79,52,30,0.00,40.00,0,-999,0,0.00
2013-7-18,78.6,71.4,62.5,-99.9,-99.9,-99.9,98,78,59,0.00,40.00,0,-999,0,0.00
2013-7-19,84.9,70.9,60.2,-99.9,-99.9,-99.9,100,66,31,0.00,40.00,0,-999,0,0.00
2013-7-20,71.6,62.9,53.3,-99.9,-99.9,-99.9,75,55,37,0.00,40.00,0,-999,0,0.00
2013-7-21,74.1,64.5,56.2,-99.9,-99.9,-99.9,100,72,47,0.00,40.00,0,-999,0,0.00
2013-7-22,75.7,66.8,60.9,-99.9,-99.9,-99.9,100,72,50,0.00,40.00,0,-999,0,0.00
2013-7-23,76.2,66.8,56.2,-99.9,-99.9,-99.9,90,66,44,0.00,40.00,0,-999,0,0.00
2013-7-24,79.7,68.7,59.0,-99.9,-99.9,-99.9,94,72,48,0.00,40.00,0,-999,0,0.00
2013-7-25,75.7,63.3,59.1,-99.9,-99.9,-99.9,100,85,59,0.00,40.00,0,-999,0,0.00
2013-7-26,70.2,63.1,55.1,-99.9,-99.9,-99.9,83,62,46,0.00,40.00,0,-999,0,0.00
2013-7-27,74.6,65.0,52.8,-99.9,-99.9,-99.9,88,59,35,0.00,40.00,0,-999,0,0.00
2013-7-28,77.6,67.0,54.4,-99.9,-99.9,-99.9,89,55,31,0.00,40.00,0,-999,0,0.00
2013-7-29,75.1,66.1,54.8,-99.9,-99.9,-99.9,89,66,48,0.00,40.00,0,-999,0,0.00
2013-7-30,79.8,69.4,59.6,-99.9,-99.9,-99.9,100,74,42,0.00,40.00,0,-999,0,0.00
2013-7-31,76.1,66.6,54.8,-99.9,-99.9,-99.9,89,66,44,0.00,40.00,0,-999,0,0.00
2013-8-1,78.1,68.6,60.2,-99.9,-99.9,-99.9,94,66,42,0.00,40.00,0,-999,0,0.00
2013-8-2,78.1,67.1,55.4,-99.9,-99.9,-99.9,87,60,38,0.00,40.00,0,-999,0,0.00
2013-8-3,77.8,66.2,53.4,-99.9,-99.9,-99.9,81,57,34,0.00,40.00,0,-999,0,0.00
2013-8-4,75.8,62.0,51.6,-99.9,-99.9,-99.9,100,77,42,0.00,40.00,0,-999,0,0.00
2013-8-5,78.5,67.7,57.7,-99.9,-99.9,-99.9,100,76,49,0.00,40.00,0,-999,0,0.00
2013-8-6,73.5,66.9,61.2,-99.9,-99.9,-99.9,96,65,35,0.00,40.00,0,-999,0,0.00
2013-8-7,68.7,61.9,55.7,-99.9,-99.9,-99.9,80,61,42,0.00,40.00,0,-999,0,0.00
2013-8-8,72.1,63.6,52.6,-99.9,-99.9,-99.9,88,60,38,0.00,40.00,0,-999,0,0.00
2013-8-9,66.7,61.9,56.4,-99.9,-99.9,-99.9,93,76,59,0.00,40.00,0,-999,0,0.00
2013-8-10,79.2,64.9,52.7,-99.9,-99.9,-99.9,99,76,39,0.00,40.00,0,-999,0,0.00
2013-8-11,79.4,66.8,53.6,-99.9,-99.9,-99.9,100,73,40,0.00,40.00,0,-999,0,0.00
2013-8-12,78.0,68.2,60.9,-99.9,-99.9,-99.9,84,58,32,0.00,40.00,0,-999,0,0.00
2013-8-13,77.6,66.8,53.4,-99.9,-99.9,-99.9,81,55,32,0.00,40.00,0,-999,0,0.00
2013-8-14,80.0,67.2,52.4,-99.9,-99.9,-99.9,87,58,35,0.00,40.00,0,-999,0,0.00
2013-8-15,82.1,70.0,56.4,-99.9,-99.9,-99.9,83,59,35,0.00,40.00,0,-999,0,0.00
2013-8-16,87.5,75.3,64.2,-99.9,-99.9,-99.9,85,60,38,0.00,40.00,0,-999,0,0.00
2013-8-17,83.4,73.6,62.7,-99.9,-99.9,-99.9,85,70,54,0.00,40.00,0,-999,0,0.00
2013-8-18,78.1,72.7,63.8,-99.9,-99.9,-99.9,100,86,69,0.00,40.00,0,-999,0,0.00
2013-8-19,92.1,79.7,64.7,-99.9,-99.9,-99.9,98,66,37,0.00,40.00,0,-999,0,0.00
2013-8-20,92.6,79.2,66.5,-99.9,-99.9,-99.9,85,59,38,0.00,40.00,0,-999,0,0.00
2013-8-21,84.2,72.8,60.5,-99.9,-99.9,-99.9,88,53,26,0.00,40.00,0,-999,0,0.00
2013-8-22,82.2,70.6,54.5,-99.9,-99.9,-99.9,81,52,31,0.00,40.00,0,-999,0,0.00
2013-8-23,84.5,72.3,58.7,-99.9,-99.9,-99.9,71,55,34,0.00,40.00,0,-999,0,0.00
2013-8-24,89.5,77.7,69.5,-99.9,-99.9,-99.9,91,78,59,0.00,40.00,0,-999,0,0.00
2013-8-25,95.9,81.8,69.3,-99.9,-99.9,-99.9,92,62,28,0.00,40.00,0,-999,0,0.00
2013-8-26,92.6,80.5,65.5,-99.9,-99.9,-99.9,84,60,34,0.00,40.00,0,-999,0,0.00
2013-8-27,93.3,82.2,70.5,-99.9,-99.9,-99.9,90,65,36,0.00,40.00,0,-999,0,0.00
2013-8-28,95.6,84.4,73.1,-99.9,-99.9,-99.9,87,56,24,0.00,40.00,0,-999,0,0.00
2013-8-29,82.3,75.1,70.8,-99.9,-99.9,-99.9,95,80,62,0.00,40.00,0,-999,0,0.00
2013-8-30,86.8,77.8,67.8,-99.9,-99.9,-99.9,95,72,50,0.00,40.00,0,-999,0,0.00
2013-8-31,91.5,76.1,62.8,-99.9,-99.9,-99.9,88,68,35,0.00,40.00,0,-999,0,0.00
2013-9-1,70.7,63.1,57.2,-99.9,-99.9,-99.9,90,67,46,0.00,40.00,0,-999,0,0.00
2013-9-2,75.7,64.2,49.4,-99.9,-99.9,-99.9,89,59,36,0.00,40.00,0,-999,0,0.00
2013-9-3,88.7,69.5,56.5,-99.9,-99.9,-99.9,80,57,39,0.00,40.00,0,-999,0,0.00
2013-9-4,72.6,61.9,50.8,-99.9,-99.9,-99.9,81,52,25,0.00,40.00,0,-999,0,0.00
2013-9-5,83.5,72.6,53.2,-99.9,-99.9,-99.9,75,49,25,0.00,40.00,0,-999,0,0.00
2013-9-6,94.2,79.8,68.1,-99.9,-99.9,-99.9,88,61,42,0.00,40.00,0,-999,0,0.00
2013-9-7,83.6,73.7,65.0,-99.9,-99.9,-99.9,74,52,30,0.00,40.00,0,-999,0,0.00
2013-9-8,73.6,65.5,56.5,-99.9,-99.9,-99.9,89,71,58,0.00,40.00,0,-999,0,0.00
2013-9-9,67.2,63.8,61.1,-99.9,-99.9,-99.9,99,91,81,0.00,40.00,0,-999,0,0.00
2013-9-10,81.8,71.3,61.0,-99.9,-99.9,-99.9,100,75,44,0.00,40.00,0,-999,0,0.00
2013-9-11,79.1,67.3,58.4,-99.9,-99.9,-99.9,93,68,34,0.00,40.00,0,-999,0,0.00
2013-9-12,72.7,64.0,57.2,-99.9,-99.9,-99.9,87,65,42,0.00,40.00,0,-999,0,0.00
2013-9-13,78.9,66.7,51.9,-99.9,-99.9,-99.9,83,58,38,0.00,40.00,0,-999,0,0.00
2013-9-14,72.6,63.9,55.0,-99.9,-99.9,-99.9,93,67,50,0.00,40.00,0,-999,0,0.00
2013-9-15,63.4,55.3,44.7,-99.9,-99.9,-99.9,82,57,33,0.00,40.00,0,-999,0,0.00
2013-9-16,70.8,57.7,40.7,-99.9,-99.9,-99.9,89,60,32,0.00,40.00,0,-999,0,0.00
2013-9-17,68.2,61.5,55.1,-99.9,-99.9,-99.9,89,73,55,0.00,40.00,0,-999,0,0.00
2013-9-18,71.2,65.2,60.1,-99.9,-99.9,-99.9,96,88,72,0.00,40.00,0,-999,0,0.00
2013-9-19,67.7,62.9,54.0,-99.9,-99.9,-99.9,98,85,70,0.00,40.00,0,-999,0,0.00
2013-9-20,61.1,52.8,48.1,-99.9,-99.9,-99.9,92,71,49,0.00,40.00,0,-999,0,0.00
2013-9-21,60.1,51.1,38.9,-99.9,-99.9,-99.9,92,67,44,0.00,40.00,0,-999,0,0.00
2013-9-22,71.8,57.9,43.8,-99.9,-99.9,-99.9,94,69,49,0.00,40.00,0,-999,0,0.00
2013-9-23,79.7,70.3,62.2,-99.9,-99.9,-99.9,77,59,40,0.00,40.00,0,-999,0,0.00
2013-9-24,80.6,67.7,58.1,-99.9,-99.9,-99.9,87,55,22,0.00,40.00,0,-999,0,0.00
2013-9-25,76.6,64.2,51.0,-99.9,-99.9,-99.9,87,61,45,0.00,40.00,0,-999,0,0.00
2013-9-26,71.3,64.7,58.1,-99.9,-99.9,-99.9,90,76,67,0.00,40.00,0,-999,0,0.00
2013-9-27,62.0,55.3,48.1,-99.9,-99.9,-99.9,89,81,64,0.00,40.00,0,-999,0,0.00
2013-9-28,54.8,51.4,48.3,-99.9,-99.9,-99.9,100,98,85,0.00,40.00,0,-999,0,0.00
2013-9-29,69.3,57.5,42.3,-99.9,-99.9,-99.9,100,76,54,0.00,40.00,0,-999,0,0.00
2013-9-30,74.6,65.2,57.4,-99.9,-99.9,-99.9,86,54,30,0.00,40.00,0,-999,0,0.00
2013-10-1,64.7,57.3,48.3,-99.9,-99.9,-99.9,98,68,44,0.00,40.00,0,-999,0,0.00
2013-10-2,62.8,51.9,42.1,-99.9,-99.9,-99.9,88,68,45,0.00,40.00,0,-999,0,0.00
2013-10-3,61.8,50.6,41.1,-99.9,-99.9,-99.9,96,74,48,0.00,40.00,0,-999,0,0.00
2013-10-4,48.0,43.6,40.7,-99.9,-99.9,-99.9,81,70,58,0.00,40.00,0,-999,0,0.00
2013-10-5,53.5,44.2,35.9,-99.9,-99.9,-99.9,88,72,54,0.00,40.00,0,-999,0,0.00
2013-10-6,68.6,51.0,35.5,-99.9,-99.9,-99.9,87,62,37,0.00,40.00,0,-999,0,0.00
2013-10-7,63.3,52.4,40.1,-99.9,-99.9,-99.9,90,65,41,0.00,40.00,0,-999,0,0.00
2013-10-8,67.2,58.1,49.8,-99.9,-99.9,-99.9,76,64,51,0.00,40.00,0,-999,0,0.00
2013-10-9,70.0,56.7,45.4,-99.9,-99.9,-99.9,85,63,39,0.00,40.00,0,-999,0,0.00
2013-10-10,70.9,58.0,46.0,-99.9,-99.9,-99.9,86,70,47,0.00,40.00,0,-999,0,0.00
2013-10-11,69.7,62.3,58.1,-99.9,-99.9,-99.9,92,78,55,0.00,40.00,0,-999,0,0.00
2013-10-12,59.6,50.6,39.5,-99.9,-99.9,-99.9,100,85,66,0.00,40.00,0,-999,0,0.00
2013-10-13,57.2,45.4,33.8,-99.9,-99.9,-99.9,92,67,36,0.00,40.00,0,-999,0,0.00
2013-10-14,50.5,42.4,34.8,-99.9,-99.9,-99.9,87,77,67,0.00,40.00,0,-999,0,0.00
2013-10-15,49.0,42.4,34.9,-99.9,-99.9,-99.9,85,71,46,0.00,40.00,0,-999,0,0.00
2013-10-16,59.5,46.3,33.8,-99.9,-99.9,-99.9,89,69,49,0.00,40.00,0,-999,0,0.00
2013-10-17,54.8,46.8,39.2,-99.9,-99.9,-99.9,77,59,38,0.00,40.00,0,-999,0,0.00
2013-10-18,53.8,42.8,34.5,-99.9,-99.9,-99.9,97,71,50,0.00,40.00,0,-999,0,0.00
2013-10-19,45.2,40.2,37.0,-99.9,-99.9,-99.9,99,89,69,0.00,40.00,0,-999,0,0.00
2013-10-20,44.3,37.0,30.5,-99.9,-99.9,-99.9,100,75,53,0.00,40.00,0,-999,0,0.00
2013-10-21,42.2,35.2,30.6,-99.9,-99.9,-99.9,83,76,64,0.00,40.00,0,-999,0,0.00
2013-10-22,39.9,35.0,32.5,-99.9,-99.9,-99.9,99,81,61,0.00,40.00,0,-999,0,0.00
2013-10-23,40.5,33.8,25.4,-99.9,-99.9,-99.9,94,81,62,0.00,40.00,0,-999,0,0.00
2013-10-24,44.8,37.1,31.8,-99.9,-99.9,-99.9,96,79,55,0.00,40.00,0,-999,0,0.00
2013-10-25,54.6,40.3,29.9,-99.9,-99.9,-99.9,87,75,54,0.00,40.00,0,-999,0,0.00
2013-10-26,47.2,40.5,36.5,-99.9,-99.9,-99.9,88,68,51,0.00,40.00,0,-999,0,0.00
2013-10-27,42.1,34.8,27.3,-99.9,-99.9,-99.9,84,70,57,0.00,40.00,0,-999,0,0.00
2013-10-28,32.5,26.5,21.2,-99.9,-99.9,-99.9,86,69,55,0.00,40.00,0,-999,0,0.00
2013-10-29,36.4,26.7,15.6,-99.9,-99.9,-99.9,92,69,43,0.00,40.00,0,-999,0,0.00
2013-10-30,46.8,34.2,25.2,-99.9,-99.9,-99.9,83,72,53,0.00,40.00,0,-999,0,0.00
2013-10-31,45.0,36.4,30.2,-99.9,-99.9,-99.9,95,82,65,0.00,40.00,0,-999,0,0.00
2013-11-1,48.2,35.4,25.8,-99.9,-99.9,-99.9,97,82,58,0.00,40.00,0,-999,0,0.00
2013-11-2,50.5,37.1,26.1,-99.9,-99.9,-99.9,96,80,57,0.00,40.00,0,-999,0,0.00
2013-11-3,50.1,43.0,33.6,-99.9,-99.9,-99.9,88,71,53,0.00,40.00,0,-999,0,0.00
2013-11-4,47.8,39.5,29.8,-99.9,-99.9,-99.9,80,71,62,0.00,40.00,0,-999,0,0.00
2013-11-5,32.6,29.7,26.1,-99.9,-99.9,-99.9,77,70,63,0.00,40.00,0,-999,0,0.00
2013-11-6,39.4,30.1,20.0,-99.9,-99.9,-99.9,81,71,50,0.00,40.00,0,-999,0,0.00
2013-11-7,36.6,29.2,17.8,-99.9,-99.9,-99.9,82,69,48,0.00,40.00,0,-999,0,0.00
2013-11-8,39.7,29.5,19.7,-99.9,-99.9,-99.9,100,91,59,0.00,40.00,0,-999,0,0.00
2013-11-9,35.6,34.0,31.3,-99.9,-99.9,-99.9,100,98,81,0.00,40.00,0,-999,0,0.00
2013-11-10,31.4,24.0,12.4,-99.9,-99.9,-99.9,92,74,50,0.00,40.00,0,-999,0,0.00
2013-11-11,20.0,14.5,10.1,-99.9,-99.9,-99.9,79,71,58,0.00,40.00,0,-999,0,0.00
2013-11-12,38.1,24.9,9.7,-99.9,-99.9,-99.9,85,74,64,0.00,40.00,0,-999,0,0.00
2013-11-13,51.6,38.0,27.5,-99.9,-99.9,-99.9,92,72,35,0.00,40.00,0,-999,0,0.00
2013-11-14,35.3,34.0,32.2,-99.9,-99.9,-99.9,100,92,82,0.00,40.00,0,-999,0,0.00
2013-11-15,46.7,38.1,31.0,-99.9,-99.9,-99.9,100,86,72,0.00,40.00,0,-999,0,0.00
2013-11-16,37.8,34.3,27.7,-99.9,-99.9,-99.9,100,98,93,0.00,40.00,0,-999,0,0.00
2013-11-17,32.9,27.3,23.1,-99.9,-99.9,-99.9,100,96,91,0.00,40.00,0,-999,0,0.00
2013-11-18,26.6,21.1,18.6,-99.9,-99.9,-99.9,97,89,75,0.00,40.00,0,-999,0,0.00
2013-11-19,35.0,28.7,19.2,-99.9,-99.9,-99.9,98,87,75,0.00,40.00,0,-999,0,0.00
2013-11-20,32.7,23.6,15.5,-99.9,-99.9,-99.9,94,82,68,0.00,40.00,0,-999,0,0.00
2013-11-21,16.2,10.6,5.0,-99.9,-99.9,-99.9,95,82,67,0.00,40.00,0,-999,0,0.00
2013-11-22,14.9,8.8,-0.2,-99.9,-99.9,-99.9,96,83,69,0.00,40.00,0,-999,0,0.00
2013-11-23,6.9,0.7,-7.8,-99.9,-99.9,-99.9,87,79,66,0.00,40.00,0,-999,0,0.00
2013-11-24,32.9,18.8,6.9,-99.9,-99.9,-99.9,99,88,82,0.00,40.00,0,-999,0,0.00
2013-11-25,33.5,26.3,15.2,-99.9,-99.9,-99.9,97,82,70,0.00,40.00,0,-999,0,0.00
2013-11-26,20.3,13.8,5.3,-99.9,-99.9,-99.9,92,82,70,0.00,40.00,0,-999,0,0.00
2013-11-27,16.9,13.1,4.9,-99.9,-99.9,-99.9,98,94,85,0.00,40.00,0,-999,0,0.00
2013-11-28,15.8,10.5,-0.2,-99.9,-99.9,-99.9,99,93,83,0.00,40.00,0,-999,0,0.00
2013-11-29,22.5,14.3,-1.8,-99.9,-99.9,-99.9,100,92,84,0.00,40.00,0,-999,0,0.00
2013-11-30,22.7,22.0,21.5,-99.9,-99.9,-99.9,96,93,90,0.00,40.00,0,-999,0,0.00
2013-12-1,24.5,22.2,21.3,-99.9,-99.9,-99.9,99,95,90,0.00,40.00,0,-999,0,0.00
2013-12-2,24.4,21.6,19.2,-99.9,-99.9,-99.9,98,92,86,0.00,40.00,0,-999,0,0.00
2013-12-3,20.3,16.9,13.4,-99.9,-99.9,-99.9,95,92,88,0.00,40.00,0,-999,0,0.00
2013-12-4,16.4,13.9,11.8,-99.9,-99.9,-99.9,96,95,93,0.00,40.00,0,-999,0,0.00
2013-12-5,12.5,6.8,-0.4,-99.9,-99.9,-99.9,96,89,81,0.00,40.00,0,-999,0,0.00
2013-12-6,7.7,-1.4,-6.4,-99.9,-99.9,-99.9,90,82,67,0.00,40.00,0,-999,0,0.00
2013-12-7,-5.2,-10.5,-16.3,-99.9,-99.9,-99.9,86,79,66,0.00,40.00,0,-999,0,0.00
2013-12-8,-2.7,-8.5,-15.4,-99.9,-99.9,-99.9,90,82,72,0.00,40.00,0,-999,0,0.00
2013-12-9,-3.5,-8.6,-14.7,-99.9,-99.9,-99.9,90,81,65,0.00,40.00,0,-999,0,0.00
2013-12-10,4.0,-6.5,-13.7,-99.9,-99.9,-99.9,89,82,72,0.00,40.00,0,-999,0,0.00
2013-12-11,-3.4,-9.7,-16.0,-99.9,-99.9,-99.9,86,79,64,0.00,40.00,0,-999,0,0.00
2013-12-12,1.5,-6.1,-12.1,-99.9,-99.9,-99.9,91,83,74,0.00,40.00,0,-999,0,0.00
2013-12-13,-7.2,-9.0,-11.5,-99.9,-99.9,-99.9,84,77,67,0.00,40.00,0,-999,0,0.00
2013-12-14,0.6,-6.1,-10.5,-99.9,-99.9,-99.9,88,82,73,0.00,40.00,0,-999,0,0.00
2013-12-15,-1.4,-10.9,-22.1,-99.9,-99.9,-99.9,90,84,76,0.00,40.00,0,-999,0,0.00
2013-12-16,29.1,15.5,-1.3,-99.9,-99.9,-99.9,99,89,79,0.00,40.00,0,-999,0,0.00
2013-12-17,25.5,7.6,-1.4,-99.9,-99.9,-99.9,98,80,61,0.00,40.00,0,-999,0,0.00
2013-12-18,12.6,5.6,-3.4,-99.9,-99.9,-99.9,90,84,76,0.00,40.00,0,-999,0,0.00
2013-12-19,-1.4,-5.2,-9.7,-99.9,-99.9,-99.9,88,85,79,0.00,40.00,0,-999,0,0.00
2013-12-20,6.9,-0.5,-6.5,-99.9,-99.9,-99.9,89,83,74,0.00,40.00,0,-999,0,0.00
2013-12-21,-1.3,-7.3,-12.4,-99.9,-99.9,-99.9,87,82,71,0.00,40.00,0,-999,0,0.00
2013-12-22,-3.2,-9.4,-12.6,-99.9,-99.9,-99.9,86,78,66,0.00,40.00,0,-999,0,0.00
2013-12-23,-5.7,-12.4,-19.6,-99.9,-99.9,-99.9,87,79,68,0.00,40.00,0,-999,0,0.00
2013-12-24,11.2,2.7,-8.3,-99.9,-99.9,-99.9,98,90,75,0.00,40.00,0,-999,0,0.00
2013-12-25,13.3,9.3,0.3,-99.9,-99.9,-99.9,100,88,78,0.00,40.00,0,-999,0,0.00
2013-12-26,17.9,6.8,-3.7,-99.9,-99.9,-99.9,98,91,83,0.00,40.00,0,-999,0,0.00
2013-12-27,33.7,23.6,11.9,-99.9,-99.9,-99.9,100,93,80,0.00,40.00,0,-999,0,0.00
2013-12-28,12.1,-1.1,-15.2,-99.9,-99.9,-99.9,94,88,79,0.00,40.00,0,-999,0,0.00
2013-12-29,-7.7,-15.9,-22.9,-99.9,-99.9,-99.9,89,83,72,0.00,40.00,0,-999,0,0.00
2013-12-30,-4.6,-15.1,-20.4,-99.9,-99.9,-99.9,89,83,73,0.00,40.00,0,-999,0,0.00
2013-12-31,-12.9,-19.0,-24.7,-99.9,-99.9,-99.9,87,81,71,0.00,40.00,0,-999,0,0.00
2014-1-1,-9.3,-17.2,-21.9,-99.9,-99.9,-99.9,87,82,70,0.00,40.00,0,-999,0,0.00
2014-1-2,-4.2,-13.8,-23.5,-99.9,-99.9,-99.9,88,83,71,0.00,40.00,0,-999,0,0.00